EW5676 Weather Reports


Display with metric or nautical units.
time (UTC)temp
F
wind
direction
speed
MPH
gust
MPH
rain 1hr
in
rain 24hr
in
rain mn
in
humidity
%
barometer
mb
20260906110047 60 0 0.0 0.0 0.00 0.00 0.00 92 1020.0
20260906104247 60 0 0.0 0.0 0.00 0.00 0.00 91 1019.6
20260906103347 60 0 0.0 0.0 0.00 0.00 0.00 91 1019.4
20260906102448 61 0 0.0 0.0 0.00 0.00 0.00 90 1019.3
20260906101548 62 0 0.0 0.0 0.00 0.00 0.00 89 1019.4
20260906095747 62 132 0.0 2.0 0.00 0.00 0.00 87 1019.2
20260906094848 62 0 0.0 0.0 0.00 0.00 0.00 87 1019.3
20260906093947 62 63 0.0 1.0 0.00 0.00 0.00 87 1019.1
20260906093048 62 62 0.0 2.0 0.00 0.00 0.00 87 1019.1
20260906091247 62 0 0.0 0.0 0.00 0.00 0.00 87 1018.7
20260906090347 62 0 0.0 0.0 0.00 0.00 0.00 87 1018.6
20260906085447 62 0 0.0 0.0 0.00 0.00 0.00 88 1018.6
20260906084547 62 0 0.0 0.0 0.00 0.00 0.00 87 1018.7
20260906082747 62 0 0.0 0.0 0.00 0.00 0.00 86 1018.5
20260906080947 62 72 0.0 2.0 0.00 0.00 0.00 87 1018.5
20260906080047 62 78 1.0 2.0 0.00 0.00 0.00 88 1018.5
20260906075148 62 71 1.0 4.0 0.00 0.00 0.00 87 1018.6
20260906073347 63 78 2.0 5.0 0.00 0.00 0.00 86 1018.4
20260906072447 63 85 2.0 4.0 0.00 0.00 0.00 86 1018.4
20260906071547 63 84 2.0 6.0 0.00 0.00 0.00 86 1018.3
20260906070648 63 85 3.0 6.0 0.00 0.00 0.00 87 1018.3
20260906065747 63 87 3.0 7.0 0.00 0.00 0.00 88 1018.3
20260906064847 63 76 4.0 7.0 0.00 0.00 0.00 89 1018.4
20260906063947 63 65 3.0 6.0 0.00 0.00 0.00 90 1018.5
20260906062147 64 70 2.0 4.0 0.00 0.00 0.00 87 1018.7
20260906061247 64 66 2.0 5.0 0.00 0.00 0.00 86 1018.7
20260906060347 64 68 3.0 6.0 0.00 0.00 0.00 86 1018.8
20260906055447 64 79 3.0 7.0 0.00 0.00 0.00 87 1018.7
20260906054547 65 67 3.0 7.0 0.00 0.00 0.00 88 1018.7
20260906053647 65 95 2.0 5.0 0.00 0.00 0.00 89 1018.6
20260906052747 65 101 3.0 7.0 0.00 0.00 0.00 90 1018.6
20260906051847 65 102 4.0 7.0 0.00 0.00 0.00 90 1018.6
20260906050947 65 114 2.0 4.0 0.00 0.00 0.00 91 1018.8
20260906045147 65 103 3.0 5.0 0.00 0.00 0.00 92 1018.8
20260906044247 65 113 2.0 5.0 0.00 0.00 0.00 92 1018.7
20260906043347 65 108 2.0 3.0 0.00 0.00 0.00 92 1018.7
20260906042448 65 117 1.0 3.0 0.00 0.00 0.00 92 1018.7
20260906041547 65 108 1.0 3.0 0.00 0.00 0.00 92 1018.8
20260906040647 65 99 3.0 6.0 0.00 0.00 0.00 91 1018.8
20260906035747 66 114 3.0 6.0 0.00 0.00 0.00 90 1018.6
20260906034848 66 80 3.0 6.0 0.00 0.00 0.00 90 1018.7
20260906033947 66 89 4.0 7.0 0.00 0.00 0.00 89 1018.6
20260906033048 66 96 3.0 5.0 0.00 0.00 0.00 89 1018.4
20260906032147 66 99 5.0 9.0 0.00 0.00 0.00 89 1018.2
20260906030347 66 85 3.0 6.0 0.00 0.00 0.00 89 1018.3
20260906025448 67 91 4.0 7.0 0.00 0.00 0.00 89 1018.3
20260906023648 67 100 4.0 7.0 0.00 0.00 0.00 89 1018.2
20260906022747 67 100 5.0 7.0 0.00 0.00 0.00 88 1018.1
20260906021847 67 99 3.0 5.0 0.00 0.00 0.00 88 1018.1
20260906020947 67 92 3.0 6.0 0.00 0.00 0.00 88 1018.1
20260906020048 68 90 3.0 5.0 0.00 0.00 0.00 87 1018.0
20260906014247 68 98 3.0 7.0 0.00 0.00 0.00 86 1018.0
20260906013348 68 91 4.0 7.0 0.00 0.00 0.00 86 1017.9
20260906012447 69 91 4.0 8.0 0.00 0.00 0.00 85 1017.7
20260906011548 69 95 5.0 10.0 0.00 0.00 0.00 85 1017.7
20260906010649 69 90 6.0 12.0 0.00 0.00 0.00 84 1017.7
20260906005747 69 90 6.0 11.0 0.00 0.00 0.00 83 1017.7
20260906004847 70 89 5.0 9.0 0.00 0.00 0.00 83 1017.6
20260906003947 70 66 2.0 7.0 0.00 0.00 0.00 83 1017.3
20260906003047 70 69 2.0 4.0 0.00 0.00 0.00 83 1017.1
20260906002147 70 64 3.0 6.0 0.00 0.00 0.00 82 1016.9
20260906000348 71 67 3.0 6.0 0.00 0.00 0.00 81 1016.7
20260905235448 71 55 3.0 6.0 0.00 0.00 0.00 79 1016.7
20260905234547 71 7 1.0 3.0 0.00 0.00 0.00 77 1016.7
20260905233647 71 346 2.0 3.0 0.00 0.00 0.00 77 1016.6
20260905232747 71 340 2.0 5.0 0.00 0.00 0.00 76 1016.5
20260905231847 72 337 3.0 5.0 0.00 0.00 0.00 75 1016.5
20260905230947 72 335 2.0 5.0 0.00 0.00 0.00 74 1016.3
20260905230047 73 328 1.0 3.0 0.00 0.00 0.00 73 1016.3
20260905225147 74 0 0.0 0.0 0.00 0.00 0.00 74 1016.2
20260905224248 73 0 0.0 0.0 0.00 0.00 0.00 77 1016.2
20260905223347 73 0 0.0 0.0 0.00 0.00 0.00 75 1016.2
20260905222447 73 0 0.0 0.0 0.00 0.00 0.00 72 1016.2
20260905221549 73 0 0.0 0.0 0.00 0.00 0.00 73 1016.2
20260905220647 74 10 1.0 3.0 0.00 0.00 0.00 73 1016.2
20260905215747 74 347 1.0 3.0 0.00 0.00 0.00 73 1016.3
20260905214847 74 8 1.0 3.0 0.00 0.00 0.00 72 1016.3
20260905213947 75 346 1.0 4.0 0.00 0.00 0.00 73 1016.2
20260905213047 75 309 2.0 4.0 0.00 0.00 0.00 70 1016.1
20260905212147 75 333 1.0 4.0 0.00 0.00 0.00 68 1016.0
20260905211247 75 309 0.0 3.0 0.00 0.00 0.00 69 1015.9
20260905210347 75 341 1.0 3.0 0.00 0.00 0.00 66 1015.9
20260905203648 74 0 0.0 0.0 0.00 0.00 0.00 75 1015.7
20260905202747 74 353 2.0 3.0 0.00 0.00 0.00 73 1015.8
20260905201848 74 343 2.0 4.0 0.00 0.00 0.00 70 1015.8
20260905200947 74 329 2.0 5.0 0.00 0.00 0.00 69 1015.7
20260905195147 76 305 3.0 6.0 0.00 0.00 0.00 67 1015.7
20260905194247 76 334 3.0 6.0 0.00 0.00 0.00 63 1015.7
20260905193347 76 313 4.0 7.0 0.00 0.00 0.00 64 1015.7
20260905192447 77 326 3.0 8.0 0.00 0.00 0.00 61 1015.8
20260905190647 77 331 3.0 7.0 0.00 0.00 0.00 63 1015.8
20260905185747 77 313 2.0 7.0 0.00 0.00 0.00 61 1015.9
20260905184847 77 326 4.0 8.0 0.00 0.00 0.00 64 1015.8
20260905183947 76 331 5.0 9.0 0.00 0.00 0.00 61 1015.9
20260905183047 76 317 3.0 6.0 0.00 0.00 0.00 64 1015.9
20260905182147 76 333 5.0 12.0 0.00 0.00 0.00 66 1016.0
20260905180348 75 291 4.0 10.0 0.00 0.00 0.00 65 1016.1
20260905175447 74 300 4.0 8.0 0.00 0.00 0.00 66 1016.2
20260905174548 75 340 4.0 9.0 0.00 0.00 0.00 65 1016.2
20260905171847 75 330 5.0 10.0 0.00 0.00 0.00 65 1016.2
20260905170047 74 293 5.0 10.0 0.00 0.00 0.00 68 1016.4
20260905165147 74 278 4.0 9.0 0.00 0.00 0.00 69 1016.4
20260905164246 74 290 5.0 8.0 0.00 0.00 0.00 70 1016.3
20260905163348 74 283 5.0 9.0 0.00 0.00 0.00 71 1016.4
20260905162447 74 291 5.0 11.0 0.00 0.00 0.00 71 1016.4
20260905161547 73 306 4.0 9.0 0.00 0.00 0.00 70 1016.2
20260905160647 73 285 4.0 8.0 0.00 0.00 0.00 73 1016.3
20260905154846 73 299 5.0 10.0 0.00 0.00 0.00 74 1016.4
20260905153947 73 344 5.0 9.0 0.00 0.00 0.00 73 1016.4
20260905153047 74 322 5.0 11.0 0.00 0.00 0.00 71 1016.5
20260905152147 73 320 5.0 12.0 0.00 0.00 0.00 71 1016.4
20260905150347 72 17 6.0 12.0 0.00 0.00 0.00 72 1016.3
20260905145447 72 332 8.0 15.0 0.00 0.00 0.00 72 1016.4
20260905144547 73 325 4.0 12.0 0.00 0.00 0.00 69 1016.4
20260905143647 73 333 5.0 10.0 0.00 0.00 0.00 71 1016.4
20260905141846 72 2 5.0 12.0 0.00 0.00 0.00 72 1016.3
20260905140946 72 9 4.0 10.0 0.00 0.00 0.00 75 1016.2
20260905140047 72 18 5.0 13.0 0.00 0.00 0.00 72 1016.3
20260905135147 72 339 5.0 11.0 0.00 0.00 0.00 74 1016.2
20260905133347 71 332 4.0 8.0 0.00 0.00 0.00 76 1016.4
20260905132446 71 20 5.0 10.0 0.00 0.00 0.00 76 1016.4
20260905131547 71 334 3.0 7.0 0.00 0.00 0.00 74 1016.5
20260905124847 70 333 5.0 9.0 0.00 0.00 0.00 78 1016.6
20260905123947 70 323 5.0 9.0 0.00 0.00 0.00 78 1016.7
20260905123047 70 318 5.0 10.0 0.00 0.00 0.00 78 1016.8
20260905122147 70 317 5.0 9.0 0.00 0.00 0.00 80 1016.9
20260905120347 69 313 5.0 9.0 0.00 0.00 0.00 80 1016.8
20260905115446 69 307 4.0 7.0 0.00 0.00 0.00 81 1016.6
20260905114546 69 312 4.0 9.0 0.00 0.00 0.00 81 1016.5
20260905113647 69 311 4.0 8.0 0.00 0.00 0.00 82 1016.4
20260905112747 68 310 2.0 6.0 0.00 0.00 0.00 83 1016.2
20260905111846 68 303 1.0 4.0 0.00 0.00 0.00 84 1016.1